User: anonymous   Login
Location: Unspecified
(0.0000°N, 0.0000°E)
Time: 19:41:52
(UTC+02:00)
Language:

ISS - Orbit

View from above orbital plane
View from above orbital plane
View from above satellite
View from above satellite

Ground track
Ground track

The orbit data is extracted from the following two-line orbital elements,

1 25544U 98067A   18265.75976082  .00016717  00000-0  10270-3 0  9025
2 25544  51.6403 252.4695 0003990 197.6950 162.4064 15.53730364 13680
Epoch (UTC): 22 September 2018 18:14:03
Eccentricity: 0.0003990
inclination: 51.6403°
perigee height: 403 km
apogee height: 408 km
right ascension of ascending node: 252.4695°
argument of perigee: 197.6950°
revolutions per day: 15.53730364
mean anomaly at epoch: 162.4064°
orbit number at epoch: 1368

The dashed part of the orbit path shows where the satellite is in the earth's shadow,  

DLR